Alexandria, MN

11:38 PM CDT on October 16, 2017 (GMT -0500)
Chandler

Weather History for KAXN - March, 2014

Change the Weather History Date:

Tuesday, March 4, 2014

  Actual Average Record
Temperature  
Mean Temperature 8 °F -  
Max Temperature 12 °F 30 °F 53 °F (1987)
Min Temperature 5 °F 12 °F -18 °F (1960)
Degree Days  
Heating Degree Days 56    
Moisture  
Dew Point 2 °F    
Average Humidity 70    
Maximum Humidity 80    
Minimum Humidity 62    
Precipitation  
Precipitation 0.00 in - - ()
Sea Level Pressure  
Sea Level Pressure 30.26 in    
Wind  
Wind Speed 8 mph (East)    
Max Wind Speed 13 mph    
Max Gust Speed -    
Visibility 10 miles    
Events      
Averages and records for this station are not official NWS values.
T = Trace of Precipitation, MM = Missing Value Source: NWS Daily Summary

Daily Weather History Graph

Daily Weather History Graph

Search for Another Location

Airport or City:

Trip Planner

Search our weather history database for the weather conditions in past years. The results will help you decide how hot, cold, wet, or windy it might be!

Date:

Astronomy

Mar. 04, 2014 Rise Set
Actual Time 6:54 AM CST 6:12 PM CST
Civil Twilight 6:24 AM CST 6:42 PM CST
Nautical Twilight 5:50 AM CST 7:16 PM CST
Astronomical Twilight 5:15 AM CST 7:51 PM CST
Moon 8:28 AM CST (3/4) 10:35 PM CST (3/4)
Length of Visible Light 12h 17m
Length of Day
11h 17m
Waxing Crescent, 15% of the Moon is Illuminated
Mar 4
Waxing Crescent
Mar 8
First Quarter
Mar 16
Full
Mar 23
Last Quarter
Mar 30
New

Hourly Weather History & Observations

Time (CST) Temp. Windchill Dew Point Humidity Pressure Visibility Wind Dir Wind Speed Gust Speed Precip Events Conditions
12:53 AM 5.0 °F -5.6 °F -0.0 °F 80% 30.25 in 10.0 mi ESE 5.8 mph - N/A   Overcast
1:53 AM 5.0 °F -10.8 °F -0.9 °F 76% 30.22 in 10.0 mi East 11.5 mph - N/A   Overcast
2:53 AM 5.0 °F -6.9 °F -0.0 °F 80% 30.23 in 10.0 mi East 6.9 mph - N/A   Overcast
3:53 AM 6.1 °F -4.3 °F -0.0 °F 76% 30.23 in 10.0 mi East 5.8 mph - N/A   Overcast
4:53 AM 6.1 °F -5.6 °F -0.0 °F 76% 30.21 in 10.0 mi East 6.9 mph - N/A   Overcast
5:53 AM 6.1 °F -4.3 °F -0.0 °F 76% 30.23 in 10.0 mi ENE 5.8 mph - N/A   Overcast
6:53 AM 5.0 °F -5.6 °F -0.9 °F 76% 30.22 in 10.0 mi ENE 5.8 mph - N/A   Overcast
7:53 AM 5.0 °F -8.1 °F -0.0 °F 80% 30.24 in 10.0 mi ENE 8.1 mph - N/A   Overcast
8:53 AM 7.0 °F -3.3 °F 1.0 °F 77% 30.25 in 10.0 mi East 5.8 mph - N/A   Partly Cloudy
9:53 AM 8.1 °F -4.3 °F 1.9 °F 76% 30.25 in 9.0 mi East 8.1 mph - N/A   Mostly Cloudy
10:53 AM 9.0 °F -2.2 °F 1.0 °F 70% 30.27 in 10.0 mi ENE 6.9 mph - N/A   Clear
11:53 AM 10.9 °F -2.6 °F 1.9 °F 67% 30.25 in 10.0 mi ENE 10.4 mph - N/A   Clear
12:53 PM 12.0 °F -2.7 °F 3.0 °F 67% 30.24 in 10.0 mi ENE 12.7 mph - N/A   Mostly Cloudy
1:53 PM 12.0 °F -2.0 °F 3.0 °F 67% 30.23 in 10.0 mi ENE 11.5 mph - N/A   Clear
2:53 PM 12.9 °F -1.6 °F 3.0 °F 65% 30.23 in 10.0 mi East 12.7 mph - N/A   Partly Cloudy
3:53 PM 12.9 °F -0.2 °F 3.0 °F 65% 30.24 in 10.0 mi East 10.4 mph - N/A   Partly Cloudy
4:53 PM 12.9 °F -0.2 °F 1.9 °F 62% 30.25 in 10.0 mi East 10.4 mph - N/A   Scattered Clouds
5:53 PM 12.9 °F 1.6 °F 1.9 °F 62% 30.27 in 10.0 mi East 8.1 mph - N/A   Overcast
6:53 PM 12.9 °F 2.6 °F 1.9 °F 62% 30.30 in 10.0 mi ESE 6.9 mph - N/A   Clear
7:53 PM 12.9 °F 6.9 °F 3.0 °F 65% 30.32 in 10.0 mi East 3.5 mph - N/A   Mostly Cloudy
8:53 PM 12.9 °F 3.8 °F 3.0 °F 65% 30.33 in 10.0 mi NE 5.8 mph - N/A   Overcast
9:53 PM 12.0 °F 4.1 °F 3.0 °F 67% 30.35 in 10.0 mi ENE 4.6 mph - N/A   Mostly Cloudy
10:53 PM 12.0 °F 4.1 °F 3.0 °F 67% 30.36 in 10.0 mi NE 4.6 mph - N/A   Overcast
11:53 PM 12.0 °F 1.5 °F 3.0 °F 67% 30.36 in 10.0 mi ENE 6.9 mph - N/A   Overcast